Weather History for Summerville, SC

Change the Weather History Date:

Friday, May 16, 2014

  Actual Average (KCHS) Record (KCHS)
Temperature  
Mean Temperature 65 °F 73 °F  
Max Temperature 77 °F 83 °F 94 °F (1941)
Min Temperature 53 °F 62 °F 47 °F (1939)
Degree Days  
Heating Degree Days 0 0  
Month to date heating degree days 8  
Since 1 July heating degree days 1971  
Cooling Degree Days 0 8  
Month to date cooling degree days 99  
Year to date cooling degree days 217  
Growing Degree Days 15 (Base 50)    
Moisture  
Dew Point 53 °F    
Average Humidity 71    
Maximum Humidity 100    
Minimum Humidity 34    
Precipitation  
Precipitation 0.00 in 0.09 in 2.07 in (1991)
Month to date precipitation 1.44  
Year to date precipitation 14.73  
Sea Level Pressure  
Sea Level Pressure 29.99 in    
Wind  
Wind Speed 7 mph (West)    
Max Wind Speed 14 mph    
Max Gust Speed 23 mph    
Visibility 10 miles    
Events      
T = Trace of Precipitation, MM = Missing Value Source: NWS Daily Summary

Daily Weather History Graph

Daily Weather History Graph

Search for Another Location

Airport:

Trip Planner

Search our weather history database for the weather conditions in past years. The results will help you decide how hot, cold, wet, or windy it might be!

Date:

Astronomy

May. 16, 2014 Rise Set
Actual Time 6:20 AM EDT 8:14 PM EDT
Civil Twilight 5:53 AM EDT 8:41 PM EDT
Nautical Twilight 5:20 AM EDT 9:14 PM EDT
Astronomical Twilight 4:45 AM EDT 9:50 PM EDT
Moon 10:19 PM EDT (5/16) 8:01 AM EDT (5/16)
Length of Visible Light 14h 48m
Length of Day
13h 53m
Waning Gibbous, 95% of the Moon is Illuminated
May 16
Waning Gibbous
May 21
Last Quarter
May 28
New
Jun 5
First Quarter
Jun 13
Full

Hourly Weather History & Observations

Time (EDT) Temp. Dew Point Humidity Pressure Visibility Wind Dir Wind Speed Gust Speed Precip Events Conditions
12:15 AM 68.0 °F 68.0 °F 100% 29.91 in 5.0 mi West 11.5 mph - N/A   Drizzle
12:35 AM 66.2 °F 66.2 °F 100% 29.92 in 7.0 mi West 9.2 mph - N/A   Drizzle
12:55 AM 64.4 °F 64.4 °F 100% 29.92 in 10.0 mi West 6.9 mph - N/A   Overcast
1:15 AM 64.4 °F 64.4 °F 100% 29.92 in 10.0 mi West 5.8 mph - N/A   Overcast
1:35 AM 64.4 °F 64.4 °F 100% 29.93 in 10.0 mi WSW 5.8 mph - N/A   Overcast
1:55 AM 62.6 °F 60.8 °F 94% 29.92 in 10.0 mi West 6.9 mph - N/A   Overcast
2:15 AM 62.6 °F 60.8 °F 94% 29.92 in 10.0 mi West 6.9 mph - N/A   Overcast
2:35 AM 60.8 °F 60.8 °F 100% 29.91 in 10.0 mi West 5.8 mph - N/A   Overcast
2:55 AM 60.8 °F 59.0 °F 94% 29.91 in 10.0 mi West 5.8 mph - N/A   Scattered Clouds
3:15 AM 60.8 °F 59.0 °F 94% 29.91 in 10.0 mi West 3.5 mph - N/A   Clear
3:35 AM 59.0 °F 59.0 °F 100% 29.91 in 10.0 mi West 3.5 mph - N/A   Mostly Cloudy
3:55 AM 59.0 °F 57.2 °F 94% 29.92 in 10.0 mi West 5.8 mph - N/A   Overcast
4:15 AM 59.0 °F 55.4 °F 88% 29.92 in 10.0 mi West 5.8 mph - N/A   Overcast
4:35 AM 57.2 °F 55.4 °F 94% 29.92 in 10.0 mi West 4.6 mph - N/A   Scattered Clouds
4:55 AM 55.4 °F 55.4 °F 100% 29.92 in 10.0 mi West 5.8 mph - N/A   Clear
5:15 AM 55.4 °F 53.6 °F 94% 29.93 in 10.0 mi West 3.5 mph - N/A   Clear
5:35 AM 55.4 °F 53.6 °F 94% 29.93 in 10.0 mi West 4.6 mph - N/A   Clear
5:55 AM 53.6 °F 53.6 °F 100% 29.93 in 10.0 mi WSW 4.6 mph - N/A   Clear
6:15 AM 53.6 °F 53.6 °F 100% 29.94 in 10.0 mi WSW 5.8 mph - N/A   Clear
6:35 AM 53.6 °F 53.6 °F 100% 29.95 in 10.0 mi West 6.9 mph - N/A   Clear
6:55 AM 53.6 °F 51.8 °F 94% 29.96 in 10.0 mi West 5.8 mph - N/A   Scattered Clouds
7:15 AM 53.6 °F 51.8 °F 94% 29.97 in 10.0 mi West 6.9 mph - N/A   Mostly Cloudy
7:35 AM 53.6 °F 53.6 °F 100% 29.98 in 10.0 mi West 8.1 mph - N/A   Overcast
7:55 AM 55.4 °F 53.6 °F 94% 29.98 in 10.0 mi West 5.8 mph - N/A   Overcast
8:15 AM 55.4 °F 53.6 °F 94% 29.98 in 10.0 mi WNW 6.9 mph - N/A   Scattered Clouds
8:35 AM 59.0 °F 53.6 °F 82% 29.98 in 10.0 mi WNW 5.8 mph - N/A   Clear
8:55 AM 59.0 °F 53.6 °F 82% 29.99 in 10.0 mi NNW 8.1 mph - N/A   Clear
9:15 AM 60.8 °F 53.6 °F 77% 29.99 in 10.0 mi WNW 9.2 mph - N/A   Clear
9:35 AM 62.6 °F 53.6 °F 72% 29.99 in 10.0 mi West 8.1 mph - N/A   Clear
9:55 AM 64.4 °F 53.6 °F 68% 30.00 in 10.0 mi NNW 9.2 mph - N/A   Clear
10:15 AM 64.4 °F 53.6 °F 68% 30.00 in 10.0 mi WNW 10.4 mph - N/A   Clear
10:35 AM 64.4 °F 53.6 °F 68% 30.00 in 10.0 mi NW 6.9 mph - N/A   Clear
10:55 AM 68.0 °F 53.6 °F 60% 30.00 in 10.0 mi NNW 10.4 mph - N/A   Clear
11:15 AM 68.0 °F 53.6 °F 60% 30.01 in 10.0 mi West 6.9 mph - N/A   Clear
11:35 AM 69.8 °F 53.6 °F 56% 30.01 in 10.0 mi WNW 6.9 mph 17.3 mph N/A   Clear
11:55 AM 69.8 °F 53.6 °F 56% 30.01 in 10.0 mi WNW 13.8 mph 18.4 mph N/A   Clear
12:15 PM 71.6 °F 51.8 °F 50% 30.01 in 10.0 mi West 13.8 mph 20.7 mph N/A   Clear
12:35 PM 71.6 °F 51.8 °F 50% 30.02 in 10.0 mi WNW 11.5 mph 18.4 mph N/A   Clear
12:55 PM 71.6 °F 51.8 °F 50% 30.02 in 10.0 mi West 10.4 mph 19.6 mph N/A   Clear
1:15 PM 71.6 °F 50.0 °F 46% 30.01 in 10.0 mi WNW 11.5 mph 18.4 mph N/A   Clear
1:35 PM 73.4 °F 50.0 °F 44% 30.01 in 10.0 mi West 12.7 mph 17.3 mph N/A   Clear
1:55 PM 73.4 °F 48.2 °F 41% 30.01 in 10.0 mi West 11.5 mph 18.4 mph N/A   Clear
2:15 PM 73.4 °F 46.4 °F 38% 30.00 in 10.0 mi WNW 12.7 mph 20.7 mph N/A   Clear
2:35 PM 73.4 °F 46.4 °F 38% 30.00 in 10.0 mi West 9.2 mph 23.0 mph N/A   Clear
2:55 PM 75.2 °F 46.4 °F 36% 29.99 in 10.0 mi West 8.1 mph 17.3 mph N/A   Clear
3:15 PM 75.2 °F 44.6 °F 34% 29.99 in 10.0 mi West 11.5 mph 18.4 mph N/A   Clear
3:35 PM 75.2 °F 44.6 °F 34% 29.99 in 10.0 mi West 6.9 mph 18.4 mph N/A   Clear
3:55 PM 75.2 °F 44.6 °F 34% 29.99 in 10.0 mi West 13.8 mph 19.6 mph N/A   Clear
4:15 PM 75.2 °F 44.6 °F 34% 29.98 in 10.0 mi West 12.7 mph 20.7 mph N/A   Clear
4:35 PM 75.2 °F 44.6 °F 34% 29.98 in 10.0 mi WNW 11.5 mph 20.7 mph N/A   Clear
4:55 PM 77.0 °F 46.4 °F 34% 29.98 in 10.0 mi WSW 11.5 mph 18.4 mph N/A   Clear
5:15 PM 77.0 °F 46.4 °F 34% 29.98 in 10.0 mi West 13.8 mph 18.4 mph N/A   Clear
5:35 PM 75.2 °F 44.6 °F 34% 29.98 in 10.0 mi West 10.4 mph 17.3 mph N/A   Clear
5:55 PM 75.2 °F 46.4 °F 36% 29.98 in 10.0 mi West 6.9 mph - N/A   Clear
6:15 PM 75.2 °F 46.4 °F 36% 29.99 in 10.0 mi West 13.8 mph 20.7 mph N/A   Clear
6:35 PM 73.4 °F 46.4 °F 38% 30.00 in 10.0 mi West 9.2 mph - N/A   Clear
6:55 PM 73.4 °F 46.4 °F 38% 30.00 in 10.0 mi WNW 8.1 mph - N/A   Clear
7:15 PM 71.6 °F 46.4 °F 41% 30.00 in 10.0 mi West 8.1 mph - N/A   Clear
7:35 PM 71.6 °F 46.4 °F 41% 30.02 in 10.0 mi West 3.5 mph - N/A   Clear
7:55 PM 68.0 °F 51.8 °F 56% 30.02 in 10.0 mi West 3.5 mph - N/A   Clear
8:15 PM 64.4 °F 53.6 °F 68% 30.03 in 10.0 mi WSW 3.5 mph - N/A   Clear
8:35 PM 64.4 °F 51.8 °F 64% 30.04 in 10.0 mi Calm Calm - N/A   Clear
8:55 PM 62.6 °F 51.8 °F 68% 30.05 in 10.0 mi Calm Calm - N/A   Clear
9:15 PM 60.8 °F 51.8 °F 72% 30.05 in 10.0 mi Calm Calm - N/A   Clear
9:35 PM 59.0 °F 53.6 °F 82% 30.06 in 10.0 mi Calm Calm - N/A   Clear
9:55 PM 59.0 °F 53.6 °F 82% 30.07 in 10.0 mi Calm Calm - N/A   Clear
10:15 PM 59.0 °F 53.6 °F 82% 30.08 in 10.0 mi Calm Calm - N/A   Clear
10:35 PM 57.2 °F 53.6 °F 88% 30.08 in 10.0 mi Calm Calm - N/A   Clear
10:55 PM 57.2 °F 53.6 °F 88% 30.09 in 10.0 mi Calm Calm - N/A   Clear
11:15 PM 55.4 °F 53.6 °F 94% 30.10 in 10.0 mi Calm Calm - N/A   Clear
11:35 PM 55.4 °F 53.6 °F 94% 30.10 in 10.0 mi Calm Calm - N/A   Clear
11:55 PM 55.4 °F 53.6 °F 94% 30.11 in 10.0 mi Calm Calm - N/A   Clear